Regional Weather Roundup
Issued by NWS Green Bay, WI

Home | Current Version | Previous Version | Text Only | Print | Product List | Glossary On
Versions: 1 2 3 4 5 6 7 8 9 10 11 12 13 14 15 16 17 18 19 20 21 22 23 24 25 26 27 28 29 30 31 32 33 34 35 36 37 38 39 40 41 42 43 44 45 46 47 48 49 50
000
ASUS43 KGRB 250459
RWRGRB

NORTH-CENTRAL AND NORTHEAST WISCONSIN REGIONAL WEATHER ROUNDUP
NATIONAL WEATHER SERVICE GREEN BAY WI
1200 AM CDT SAT APR 25 2015

WIZ005-009-010>012-018-019-250600-
NORTH CENTRAL WISCONSIN

CITY           SKY/WX    TMP DP  RH WIND       PRES   REMARKS
IRONWOOD       CLOUDY    39  25  56 E9        29.92S
MANITOWISH WTR NOT AVBL
ARBOR VITAE    NOT AVBL
EAGLE RIVER    NOT AVBL
LAND O LAKES   NOT AVBL
RHINELANDER    CLOUDY    39  28  64 SE8       29.96S
PHILLIPS       NOT AVBL
ANTIGO         NOT AVBL
TOMAHAWK       NOT AVBL
MERRILL        NOT AVBL
$$

WIZ013-073-250600-
NORTHEAST WISCONSIN

CITY           SKY/WX    TMP DP  RH WIND       PRES   REMARKS
IRON MOUNTAIN  CLOUDY    38  23  55 SE3       29.99R
MARINETTE      CLOUDY    37  25  60 N3        30.01S
$$

WIZ017-030-035>037-045-250600-
CENTRAL WISCONSIN

CITY           SKY/WX    TMP DP  RH WIND       PRES   REMARKS
MEDFORD        NOT AVBL
WAUSAU         CLOUDY    41  29  62 SE9       29.94S
MOSINEE        NOT AVBL
MARSHFIELD     LGT RAIN  39  34  82 E12       29.93S
WISC RAPIDS    LGT RAIN  39  34  82 SE8       29.95F
STEVENS POINT  NOT AVBL
WAUPACA        NOT AVBL
SHAWANO        NOT AVBL
CLINTONVILLE   NOT AVBL
$$

WIZ038-039-048-051-250600-
FOX VALLEY

CITY           SKY/WX    TMP DP  RH WIND       PRES   REMARKS
NWS GREEN BAY  CLOUDY    40  26  57 SE3       30.01S
APPLETON       NOT AVBL
OSHKOSH        LGT RAIN  39  34  82 E12       29.97F
FOND DU LAC    CLOUDY    39  33  79 E8        29.97F
$$

WIZ022-050-052-250600-
EAST CENTRAL WISCONSIN

CITY           SKY/WX    TMP DP  RH WIND       PRES   REMARKS
STURGEON BAY   CLOUDY    39  19  45 E7        30.02S
MANITOWOC      NOT AVBL
SHEBOYGAN      LGT RAIN  37  33  85 NE7       29.98F
$$

LMZ563-521-522-541>543-250600-
LAKESHORE

STATION/POSITION TIME  TEMP    WIND        PRES    VSBY  WAVE
                       AIR SEA DIR/SP/G                  HT/PER
                 (UTC) (F)     (DEG/KT/KT) (MB)    (MI)  (FT/S)
SHEBOYGAN LKSHOR 0400   38      40/  4/  5 1016.8F
KEWAUNEE LKSHORE 0400   39     170/  2/  4 1015.5R
NORTHPORT PIER   0400   38      80/  6/  8 1016.6S
SISTER BAY LKSHO 0400   39      90/ 11/ 15   N/A
CHAMBERS ISLAND  0400   39      70/  5/  7 1016.6S
MENOMINEE LKSHOR 0400   39      20/  4/  4 1017.0R
$$


USA.gov is the U.S. government's official web portal to all federal, state and local government web resources and services.